| time (UTC) | temp F | wind direction | speed MPH | gust MPH | rain 1hr in | rain 24hr in | rain mn in | humidity % | barometer mb |
| 20260503001805 | 59 | 209 | 0.0 | 3.0 | 0.03 | 0.44 | 0.03 | 93 | 1014.3 |
| 20260502235803 | 60 | 209 | 2.0 | 3.0 | 0.03 | 0.44 | 0.03 | 93 | 1014.4 |
| 20260502234807 | 60 | 210 | 2.0 | 3.0 | 0.03 | 0.44 | 0.03 | 93 | 1014.4 |
| 20260502233803 | 60 | 249 | 1.0 | 3.0 | 0.02 | 0.43 | 0.02 | 93 | 1014.5 |
| 20260502232803 | 60 | 240 | 4.0 | 5.0 | 0.02 | 0.43 | 0.02 | 93 | 1014.5 |
| 20260502230806 | 60 | 235 | 3.0 | 5.0 | 0.00 | 0.41 | 0.00 | 93 | 1014.5 |
| 20260502225803 | 60 | 228 | 4.0 | 7.0 | 0.00 | 0.41 | 0.00 | 93 | 1014.5 |
| 20260502224806 | 60 | 238 | 3.0 | 5.0 | 0.00 | 0.41 | 0.00 | 93 | 1014.5 |
| 20260502223804 | 60 | 238 | 2.0 | 3.0 | 0.00 | 0.41 | 0.00 | 93 | 1014.5 |
| 20260502223306 | 60 | 238 | 2.0 | 3.0 | 0.00 | 0.41 | 0.00 | 93 | 1014.6 |
| 20260502215305 | 59 | 239 | 3.0 | 5.0 | 0.00 | 0.41 | 0.41 | 93 | 1014.6 |
| 20260502214806 | 60 | 239 | 3.0 | 5.0 | 0.00 | 0.41 | 0.41 | 93 | 1014.6 |
| 20260502213803 | 60 | 239 | 3.0 | 6.0 | 0.00 | 0.41 | 0.41 | 93 | 1014.7 |
| 20260502213307 | 60 | 239 | 4.0 | 6.0 | 0.00 | 0.41 | 0.41 | 93 | 1014.7 |
| 20260502210804 | 60 | 195 | 2.0 | 3.0 | 0.00 | 0.41 | 0.41 | 93 | 1014.7 |
| 20260502210306 | 60 | 180 | 3.0 | 3.0 | 0.00 | 0.41 | 0.41 | 93 | 1014.8 |
| 20260502205305 | 60 | 208 | 2.0 | 5.0 | 0.00 | 0.41 | 0.41 | 93 | 1014.8 |
| 20260502203306 | 60 | 215 | 3.0 | 5.0 | 0.00 | 0.41 | 0.41 | 93 | 1014.7 |
| 20260502202305 | 60 | 219 | 5.0 | 9.0 | 0.00 | 0.41 | 0.41 | 93 | 1014.7 |
| 20260502201807 | 60 | 208 | 3.0 | 7.0 | 0.00 | 0.41 | 0.41 | 93 | 1014.6 |
| 20260502201303 | 60 | 227 | 4.0 | 7.0 | 0.00 | 0.41 | 0.41 | 92 | 1014.6 |
| 20260502195803 | 60 | 257 | 6.0 | 9.0 | 0.00 | 0.41 | 0.41 | 92 | 1014.6 |
| 20260502194805 | 60 | 249 | 6.0 | 9.0 | 0.00 | 0.41 | 0.41 | 92 | 1014.6 |
| 20260502193305 | 60 | 268 | 6.0 | 8.0 | 0.00 | 0.41 | 0.41 | 92 | 1014.6 |
| 20260502185804 | 61 | 254 | 3.0 | 6.0 | 0.00 | 0.41 | 0.41 | 93 | 1014.2 |
| 20260502183804 | 61 | 273 | 5.0 | 7.0 | 0.00 | 0.41 | 0.41 | 92 | 1014.2 |
| 20260502181806 | 61 | 277 | 3.0 | 3.0 | 0.00 | 0.41 | 0.41 | 93 | 1014.1 |
| 20260502181304 | 61 | 270 | 3.0 | 6.0 | 0.00 | 0.41 | 0.41 | 92 | 1014.0 |
| 20260502180804 | 61 | 254 | 4.0 | 6.0 | 0.00 | 0.41 | 0.41 | 92 | 1013.9 |
| 20260502164303 | 61 | 9 | 9.0 | 13.0 | 0.20 | 0.40 | 0.40 | 92 | 1014.0 |
| 20260502163803 | 61 | 15 | 10.0 | 12.0 | 0.20 | 0.40 | 0.40 | 92 | 1014.0 |
| 20260502163306 | 61 | 350 | 3.0 | 7.0 | 0.21 | 0.40 | 0.40 | 92 | 1014.7 |
| 20260502160803 | 62 | 266 | 7.0 | 12.0 | 0.13 | 0.30 | 0.30 | 91 | 1014.9 |
| 20260502160305 | 62 | 263 | 6.0 | 10.0 | 0.09 | 0.26 | 0.26 | 91 | 1014.9 |
| 20260502121807 | 61 | 122 | 7.0 | 12.0 | 0.00 | 0.13 | 0.13 | 92 | 1015.7 |
| 20260502120804 | 61 | 91 | 5.0 | 12.0 | 0.00 | 0.13 | 0.13 | 92 | 1015.4 |
| 20260502120306 | 62 | 94 | 6.0 | 10.0 | 0.00 | 0.13 | 0.13 | 92 | 1015.5 |
| 20260502115306 | 61 | 87 | 7.0 | 10.0 | 0.00 | 0.13 | 0.13 | 92 | 1015.4 |
| 20260502114807 | 62 | 82 | 4.0 | 7.0 | 0.00 | 0.13 | 0.13 | 92 | 1015.4 |
| 20260502113306 | 62 | 38 | 5.0 | 6.0 | 0.00 | 0.13 | 0.13 | 92 | 1015.5 |
| 20260502112305 | 62 | 358 | 7.0 | 9.0 | 0.00 | 0.13 | 0.13 | 92 | 1015.7 |
| 20260502111806 | 61 | 348 | 6.0 | 12.0 | 0.00 | 0.13 | 0.13 | 92 | 1015.9 |
| 20260502111304 | 61 | 343 | 12.0 | 13.0 | 0.00 | 0.13 | 0.13 | 92 | 1015.8 |
| 20260502105804 | 62 | 343 | 10.0 | 13.0 | 0.00 | 0.13 | 0.13 | 92 | 1016.2 |
| 20260502104304 | 61 | 299 | 5.0 | 8.0 | 0.00 | 0.13 | 0.13 | 92 | 1016.5 |
| 20260502103804 | 61 | 38 | 2.0 | 3.0 | 0.00 | 0.13 | 0.13 | 92 | 1016.3 |
| 20260502100306 | 61 | 87 | 3.0 | 5.0 | 0.00 | 0.13 | 0.13 | 92 | 1016.2 |
| 20260502091304 | 62 | 95 | 1.0 | 5.0 | 0.04 | 0.13 | 0.13 | 92 | 1016.3 |
| 20260502090804 | 62 | 79 | 2.0 | 7.0 | 0.04 | 0.13 | 0.13 | 92 | 1016.2 |
| 20260502071304 | 62 | 271 | 9.0 | 13.0 | 0.00 | 0.00 | 0.00 | 92 | 1017.2 |
| 20260502065306 | 62 | 240 | 6.0 | 10.0 | 0.00 | 0.00 | 0.00 | 92 | 1016.5 |
| 20260502063306 | 62 | 268 | 4.0 | 8.0 | 0.00 | 0.00 | 0.00 | 92 | 1016.4 |
| 20260502062804 | 62 | 236 | 3.0 | 5.0 | 0.00 | 0.00 | 0.00 | 92 | 1016.3 |
| 20260502055305 | 62 | 250 | 4.0 | 7.0 | 0.00 | 0.00 | 0.00 | 92 | 1015.8 |
| 20260502053305 | 62 | 301 | 5.0 | 7.0 | 0.00 | 0.00 | 0.00 | 92 | 1015.6 |
| 20260502052803 | 62 | 315 | 5.0 | 7.0 | 0.00 | 0.00 | 0.00 | 92 | 1015.6 |
| 20260502051304 | 61 | 312 | 6.0 | 8.0 | 0.00 | 0.00 | 0.00 | 92 | 1015.7 |
| 20260502050803 | 61 | 277 | 5.0 | 8.0 | 0.00 | 0.00 | 0.00 | 92 | 1015.7 |
| 20260502044807 | 62 | 306 | 6.0 | 6.0 | 0.00 | 0.00 | 0.00 | 92 | 1015.7 |
| 20260502043804 | 62 | 313 | 4.0 | 5.0 | 0.00 | 0.00 | 0.00 | 92 | 1015.6 |
| 20260502042804 | 62 | 314 | 2.0 | 3.0 | 0.00 | 0.00 | 0.00 | 92 | 1015.6 |
| 20260502041807 | 62 | 93 | 1.0 | 1.0 | 0.00 | 0.00 | 0.00 | 92 | 1015.6 |
| 20260502040804 | 62 | 93 | 0.0 | 1.0 | 0.00 | 0.00 | 0.00 | 92 | 1015.5 |
| 20260502040306 | 62 | 93 | 1.0 | 2.0 | 0.00 | 0.00 | 0.00 | 91 | 1015.2 |
| 20260502034806 | 62 | 93 | 2.0 | 6.0 | 0.00 | 0.00 | 0.00 | 91 | 1015.2 |
| 20260502032803 | 62 | 120 | 6.0 | 8.0 | 0.00 | 0.00 | 0.00 | 91 | 1015.4 |
| 20260502031806 | 62 | 130 | 3.0 | 6.0 | 0.00 | 0.00 | 0.00 | 91 | 1015.6 |
| 20260502025306 | 62 | 261 | 1.0 | 2.0 | 0.00 | 0.00 | 0.00 | 91 | 1015.7 |
| 20260502022803 | 62 | 292 | 2.0 | 3.0 | 0.00 | 0.00 | 0.00 | 91 | 1016.0 |
| 20260502021303 | 62 | 261 | 5.0 | 9.0 | 0.00 | 0.00 | 0.00 | 91 | 1016.5 |
| 20260502020305 | 62 | 285 | 4.0 | 6.0 | 0.00 | 0.00 | 0.00 | 91 | 1016.4 |
| 20260502015804 | 62 | 250 | 2.0 | 3.0 | 0.00 | 0.00 | 0.00 | 91 | 1016.1 |